STARLINK-2630, 48381

Orbit data source: Space-Track

STARLINK-2630, 48381 is a payload satellite owned by SpaceX/Seattle (US) in LEO that was launched on Tue, 04 May 2021 UTC via an FALCON 9 launch vehicle from the Air Force Eastern Test Range (AFETR). Payload-class satellites include a variety of spacecraft equipped with specific instruments for various scientific and technological missions. These include communications satellites like Starlink; space stations such as the ISS; scientific satellites like the Hubble; Earth observation satellites from companies like Planet Labs, Umbra, and HawkEye 360; GPS; miniature CubeSats for education and research; and military/defense satellites.

Loading next visibility...
Identifier
48381, 2021-038AE
Orbit
LEO
Country
Flag of USUS
Related business
Manufacturer
SpaceX/Seattle
Mission
Operational Commercial Communications
Bus & Motor
STARLINK, Unknown motor
Mass
260 kg wet, ~248 kg dry
Launch date (UTC)
2021-05-04 (5 years ago)
Launch vehicle
FALCON 9
Launch site
Air Force Eastern Test Range (AFETR)
Object type
Payload
Rocket body
Debris
Shape & HBR
Box + 1 Pan, 10.1 m
Radar Cross Section
13.562 m², Large (>1 m²)

Expand to show TLE details & history
Last TLE update: 2 days ago

TLE from 2 days ago
0 STARLINK-2630
1 48381U 21038AE  26171.45981795  .00007224  00000-0  24433-3 0  9997
2 48381  53.1579 230.2465 0001301  88.2310 271.8840 15.31698902282966
Epoch: 2026-06-20T11:02Z
TLE epoch observation values (Epoch: 2026-06-20T11:02:08.270Z)
Latitude
-0.00007°
Longitude
156.03786°
Altitude
471.614 km
Speed
7.631 km/s
True Right ascension
15h 20m 59s
True Declination
0° 00' 00"
Sunlit
Object was in full shadow at epoch
Visualization orbit readout
Latitude
Unknown
Longitude
Unknown
Altitude
Unknown
Speed
Unknown
Apparent Right ascension
Unknown
Apparent Declination
Unknown
Sunlit
N/A
Visualization observer readout
Local Sidereal Time
21:38:50
Azimuth
Unknown
Elevation
Unknown
Doppler factor
Unknown
Orbital elements
Apogee altitude
471.891 km
Perigee altitude
470.109 km
Semi-major axis
6,849.137 km
Eccentricity
0.00013
Inclination
53.1579°
RAAN
230.2465°
Arg. of periapsis
88.231°
True anomaly
271.8691°
Mean anomaly
271.884°
Eccentric anomaly
271.87655°
Mean motion
3.82904 °/min
Orbital period
94.02 mins
BSTAR
0.00024433
Loading maneuver chart data...
Computing Atmospheric mass density...

Documentation

Showing up to 5 results
|